01-12-2022, 00:00:08,     25,    0.0,    0.9,   0.00,   0.00, 1024.0,    0.0, -999.0
01-12-2022, 00:00:18,     25,    0.0,    0.9,   0.00,   0.00, 1024.0,    0.1, -999.0
01-12-2022, 00:00:27,     25,    0.0,    0.9,   0.00,   0.00, 1024.0,    0.1, -999.0
01-12-2022, 00:00:38,     25,    0.0,    0.9,   0.00,   0.00, 1024.0,    0.0, -999.0
01-12-2022, 00:00:48,     25,    0.0,    0.9,   0.00,   0.00, 1024.0,    0.2, -999.0
01-12-2022, 00:00:57,     25,    0.0,    0.9,   0.00,   0.00, 1024.0,    0.0, -999.0
01-12-2022, 00:01:07,     25,    0.0,    0.9,   0.00,   0.00, 1024.0,    0.1, -999.0
01-12-2022, 00:01:18,     25,    0.0,    1.0,   0.00,   0.00, 1024.0,    0.1, -999.0
01-12-2022, 00:01:27,     25,    0.0,    0.9,   0.00,   0.00, 1024.0,    0.2, -999.0
01-12-2022, 00:01:37,     25,    0.0,    0.9,   0.00,   0.00, 1024.0,    0.0, -999.0
01-12-2022, 00:01:47,     25,    0.0,    0.9,   0.00,   0.00, 1024.0,    0.1, -999.0
01-12-2022, 00:01:58,     25,    0.0,    0.9,   0.00,   0.00, 1024.0,    0.1, -999.0
01-12-2022, 00:02:07,     25,    0.0,    0.9,   0.00,   0.00, 1024.0,    0.0, -999.0
01-12-2022, 00:02:17,     25,    0.0,    0.9,   0.00,   0.00, 1024.0,    0.1, -999.0
01-12-2022, 00:02:28,     25,    0.0,    0.9,   0.00,   0.00, 1024.1,    0.0, -999.0
01-12-2022, 00:02:37,     25,    0.0,    1.0,   0.00,   0.00, 1024.1,    0.0, -999.0
01-12-2022, 00:02:47,     25,    0.0,    0.9,   0.00,   0.00, 1024.0,    0.0, -999.0
01-12-2022, 00:02:57,     24,    0.0,    0.9,   0.00,   0.00, 1024.0,    0.2, -999.0
01-12-2022, 00:03:07,     25,    0.0,    0.8,   0.00,   0.00, 1024.0,    0.0, -999.0
01-12-2022, 00:03:17,     25,    0.0,    0.8,   0.00,   0.00, 1024.1,    0.0, -999.0
01-12-2022, 00:03:27,     24,    0.0,    0.8,   0.00,   0.00, 1024.0,    0.1, -999.0
01-12-2022, 00:03:37,     25,    0.0,    0.9,   0.00,   0.00, 1024.0,    0.1, -999.0
01-12-2022, 00:03:47,     25,    0.0,    0.9,   0.00,   0.00, 1024.0,    0.1, -999.0
01-12-2022, 00:03:57,     24,    0.0,    0.9,   0.00,   0.00, 1024.1,    0.0, -999.0
01-12-2022, 00:04:07,     25,    0.0,    0.8,   0.00,   0.00, 1024.1,    0.0, -999.0
01-12-2022, 00:04:17,     25,    0.0,    0.8,   0.00,   0.00, 1024.0,    0.0, -999.0
01-12-2022, 00:04:27,     25,    0.0,    0.8,   0.00,   0.00, 1024.1,    0.1, -999.0
01-12-2022, 00:04:37,     25,    0.0,    0.7,   0.00,   0.00, 1024.1,    0.0, -999.0
01-12-2022, 00:04:47,     25,    0.0,    0.8,   0.00,   0.00, 1024.1,    0.0, -999.0
01-12-2022, 00:04:57,     25,    0.0,    0.8,   0.00,   0.00, 1024.1,    0.0, -999.0
01-12-2022, 00:05:07,     25,    0.0,    0.8,   0.00,   0.00, 1024.1,    0.0, -999.0
01-12-2022, 00:05:17,     25,    0.0,    0.7,   0.00,   0.00, 1024.1,    0.1, -999.0
01-12-2022, 00:05:27,     25,    0.0,    0.8,   0.00,   0.00, 1024.1,    0.1, -999.0
01-12-2022, 00:05:37,     25,    0.0,    0.8,   0.00,   0.00, 1024.1,    0.0, -999.0
01-12-2022, 00:05:47,     25,    0.0,    0.8,   0.00,   0.00, 1024.0,    0.0, -999.0
01-12-2022, 00:05:57,     25,    0.0,    0.7,   0.00,   0.00, 1024.0,    0.0, -999.0
01-12-2022, 00:06:07,     25,    0.0,    0.6,   0.00,   0.00, 1024.1,    0.0, -999.0
01-12-2022, 00:06:17,     25,    0.0,    0.8,   0.00,   0.00, 1024.1,    0.0, -999.0
01-12-2022, 00:06:27,     25,    0.0,    0.8,   0.00,   0.00, 1024.1,    0.0, -999.0
01-12-2022, 00:06:37,     25,    0.0,    0.8,   0.00,   0.00, 1024.1,    0.1, -999.0
01-12-2022, 00:06:47,     25,    0.0,    0.8,   0.00,   0.00, 1024.1,    0.1, -999.0
01-12-2022, 00:06:56,     25,    0.0,    0.8,   0.00,   0.00, 1024.0,    0.0, -999.0
01-12-2022, 00:07:07,     25,    0.0,    0.8,   0.00,   0.00, 1024.1,    0.0, -999.0
01-12-2022, 00:07:17,     25,    0.0,    0.8,   0.00,   0.00, 1024.1,    0.1, -999.0
01-12-2022, 00:07:27,     25,    0.0,    0.7,   0.00,   0.00, 1024.0,    0.0, -999.0
01-12-2022, 00:07:36,     25,    0.0,    0.7,   0.00,   0.00, 1024.0,    0.0, -999.0
01-12-2022, 00:07:47,     25,    0.0,    0.7,   0.00,   0.00, 1024.0,    0.0, -999.0
01-12-2022, 00:07:57,     25,    0.0,    0.7,   0.00,   0.00, 1024.0,    0.0, -999.0
01-12-2022, 00:08:06,     25,    0.0,    0.7,   0.00,   0.00, 1024.0,    0.0, -999.0
01-12-2022, 00:08:16,     25,    0.0,    0.7,   0.00,   0.00, 1024.0,    0.0, -999.0
01-12-2022, 00:08:27,     25,    0.0,    0.8,   0.00,   0.00, 1024.0,    0.0, -999.0
01-12-2022, 00:08:36,     25,    0.0,    0.8,   0.00,   0.00, 1024.0,    0.0, -999.0
01-12-2022, 00:08:46,     25,    0.0,    0.7,   0.00,   0.00, 1024.1,    0.1, -999.0
01-12-2022, 00:08:57,     25,    0.0,    0.8,   0.00,   0.00, 1024.0,    0.0, -999.0
01-12-2022, 00:09:07,     25,    0.0,    0.8,   0.00,   0.00, 1024.0,    0.0, -999.0
01-12-2022, 00:09:16,     23,    0.0,    0.8,   0.00,   0.00, 1024.0,    0.0, -999.0
01-12-2022, 00:09:26,     25,    0.0,    0.8,   0.00,   0.00, 1024.1,    0.0, -999.0
01-12-2022, 00:09:37,     25,    0.0,    0.8,   0.00,   0.00, 1024.0,    0.1, -999.0
01-12-2022, 00:09:46,     25,    0.0,    0.8,   0.00,   0.00, 1024.0,    0.1, -999.0
01-12-2022, 00:09:56,     25,    0.0,    0.7,   0.00,   0.00, 1024.0,    0.1, -999.0
01-12-2022, 00:10:06,     25,    0.0,    0.8,   0.00,   0.00, 1024.1,    0.3, -999.0
01-12-2022, 00:10:16,     25,    0.0,    0.8,   0.00,   0.00, 1024.0,    0.0, -999.0
01-12-2022, 00:10:26,     25,    0.0,    0.8,   0.00,   0.00, 1024.0,    0.1, -999.0
01-12-2022, 00:10:36,     25,    0.0,    0.8,   0.00,   0.00, 1024.1,    0.1, -999.0
01-12-2022, 00:10:46,     25,    0.0,    0.8,   0.00,   0.00, 1024.0,    0.0, -999.0
01-12-2022, 00:10:56,     25,    0.0,    0.8,   0.00,   0.00, 1024.0,    0.2, -999.0
01-12-2022, 00:11:06,     28,    0.0,    0.9,   0.00,   0.00, 1024.0,    0.0, -999.0
01-12-2022, 00:11:16,     25,    0.0,    0.9,   0.00,   0.00, 1024.0,    0.0, -999.0
01-12-2022, 00:11:26,     25,    0.0,    0.9,   0.00,   0.00, 1024.0,    0.0, -999.0
01-12-2022, 00:11:36,     25,    0.0,    1.0,   0.00,   0.00, 1024.0,    0.0, -999.0
01-12-2022, 00:11:46,     25,    0.0,    0.9,   0.00,   0.00, 1024.0,    0.0, -999.0
01-12-2022, 00:11:56,     25,    0.0,    1.0,   0.00,   0.00, 1024.0,    0.0, -999.0
01-12-2022, 00:12:06,     25,    0.0,    1.0,   0.00,   0.00, 1024.0,    0.0, -999.0
01-12-2022, 00:12:16,     25,    0.0,    1.0,   0.00,   0.00, 1024.0,    0.2, -999.0
01-12-2022, 00:12:26,     24,    0.0,    1.0,   0.00,   0.00, 1024.0,    0.0, -999.0
01-12-2022, 00:12:36,     25,    0.0,    1.0,   0.00,   0.00, 1024.0,    0.0, -999.0
01-12-2022, 00:12:46,     25,    0.0,    1.0,   0.00,   0.00, 1024.0,    0.1, -999.0
01-12-2022, 00:12:56,     25,    0.0,    0.9,   0.00,   0.00, 1024.0,    0.0, -999.0
01-12-2022, 00:13:06,     25,    0.0,    1.0,   0.00,   0.00, 1024.0,    0.0, -999.0
01-12-2022, 00:13:16,     25,    0.0,    1.0,   0.00,   0.00, 1024.0,    0.1, -999.0
01-12-2022, 00:13:26,     25,    0.0,    1.0,   0.00,   0.00, 1024.0,    0.1, -999.0
01-12-2022, 00:13:36,     25,    0.0,    1.1,   0.00,   0.00, 1024.0,    0.0, -999.0
01-12-2022, 00:13:46,     25,    0.0,    1.0,   0.00,   0.00, 1024.0,    0.0, -999.0
01-12-2022, 00:13:56,     25,    0.0,    1.0,   0.00,   0.00, 1023.9,    0.1, -999.0
01-12-2022, 00:14:06,     25,    0.0,    1.0,   0.00,   0.00, 1023.9,    0.0, -999.0
01-12-2022, 00:14:16,     25,    0.0,    1.1,   0.00,   0.00, 1023.9,    0.0, -999.0
01-12-2022, 00:14:26,     25,    0.0,    0.9,   0.00,   0.00, 1023.9,    0.0, -999.0
01-12-2022, 00:14:36,     25,    0.0,    1.1,   0.00,   0.00, 1023.9,    0.1, -999.0
01-12-2022, 00:14:46,     25,    0.0,    1.1,   0.00,   0.00, 1023.9,    0.1, -999.0
01-12-2022, 00:14:56,     25,    0.0,    1.0,   0.00,   0.00, 1023.9,    0.1, -999.0
01-12-2022, 00:15:06,     25,    0.0,    1.0,   0.00,   0.00, 1023.9,    0.1, -999.0
01-12-2022, 00:15:15,     25,    0.0,    1.0,   0.00,   0.00, 1024.0,    0.0, -999.0
01-12-2022, 00:15:26,     25,    0.0,    1.0,   0.00,   0.00, 1023.9,    0.0, -999.0
01-12-2022, 00:15:36,     25,    0.0,    1.0,   0.00,   0.00, 1023.9,    0.1, -999.0
01-12-2022, 00:15:45,     25,    0.0,    1.0,   0.00,   0.00, 1023.9,    0.0, -999.0
01-12-2022, 00:15:55,     26,    0.0,    1.0,   0.00,   0.00, 1023.9,    0.1, -999.0
01-12-2022, 00:16:06,     25,    0.0,    1.0,   0.00,   0.00, 1023.9,    0.0, -999.0
01-12-2022, 00:16:16,     25,    0.0,    1.0,   0.00,   0.00, 1023.9,    0.1, -999.0
01-12-2022, 00:16:25,     25,    0.0,    1.0,   0.00,   0.00, 1023.9,    0.0, -999.0
01-12-2022, 00:16:35,     25,    0.0,    1.0,   0.00,   0.00, 1023.9,    0.0, -999.0
01-12-2022, 00:16:46,     25,    0.0,    1.0,   0.00,   0.00, 1023.9,    0.1, -999.0
01-12-2022, 00:16:55,     25,    0.0,    1.0,   0.00,   0.00, 1023.9,    0.0, -999.0
01-12-2022, 00:17:05,     25,    0.0,    1.0,   0.00,   0.00, 1023.9,    0.0, -999.0
01-12-2022, 00:17:15,     25,    0.0,    1.0,   0.00,   0.00, 1023.9,    0.2, -999.0
01-12-2022, 00:17:26,     26,    0.0,    1.0,   0.00,   0.00, 1023.9,    0.0, -999.0
01-12-2022, 00:17:35,     25,    0.0,    1.0,   0.00,   0.00, 1023.9,    0.0, -999.0
01-12-2022, 00:17:45,     25,    0.0,    1.0,   0.00,   0.00, 1023.9,    0.1, -999.0
01-12-2022, 00:17:55,     25,    0.0,    1.0,   0.00,   0.00, 1023.9,    0.0, -999.0
01-12-2022, 00:18:05,     24,    0.0,    1.0,   0.00,   0.00, 1023.9,    0.1, -999.0
01-12-2022, 00:18:15,     25,    0.0,    1.1,   0.00,   0.00, 1023.9,    0.0, -999.0
01-12-2022, 00:18:25,     25,    0.0,    0.9,   0.00,   0.00, 1023.9,    0.0, -999.0
01-12-2022, 00:18:35,     25,    0.0,    1.0,   0.00,   0.00, 1023.9,    0.1, -999.0
01-12-2022, 00:18:45,     25,    0.0,    1.1,   0.00,   0.00, 1023.9,    0.1, -999.0
01-12-2022, 00:18:55,     25,    0.0,    1.0,   0.00,   0.00, 1023.9,    0.3, -999.0
01-12-2022, 00:19:05,     25,    0.0,    1.1,   0.00,   0.00, 1023.9,    0.0, -999.0
01-12-2022, 00:19:15,     25,    0.0,    1.1,   0.00,   0.00, 1023.9,    0.0, -999.0
01-12-2022, 00:19:25,     25,    0.0,    1.0,   0.00,   0.00, 1023.9,    0.0, -999.0
01-12-2022, 00:19:35,     25,    0.0,    1.0,   0.00,   0.00, 1023.9,    0.0, -999.0
01-12-2022, 00:19:45,     25,    0.0,    1.0,   0.00,   0.00, 1023.9,    0.3, -999.0
01-12-2022, 00:19:55,     25,    0.0,    1.1,   0.00,   0.00, 1023.9,    0.3, -999.0
01-12-2022, 00:20:05,     25,    0.0,    1.0,   0.00,   0.00, 1023.9,    0.1, -999.0
01-12-2022, 00:20:15,     25,    0.0,    1.0,   0.00,   0.00, 1023.9,    0.0, -999.0
01-12-2022, 00:20:25,     25,    0.0,    0.9,   0.00,   0.00, 1023.9,    0.0, -999.0
01-12-2022, 00:20:35,     25,    0.0,    1.1,   0.00,   0.00, 1023.9,    0.0, -999.0
01-12-2022, 00:20:45,     25,    0.0,    1.1,   0.00,   0.00, 1023.9,    0.1, -999.0
01-12-2022, 00:20:55,     25,    0.0,    1.1,   0.00,   0.00, 1023.9,    0.1, -999.0
01-12-2022, 00:21:05,     25,    0.0,    1.1,   0.00,   0.00, 1023.9,    0.0, -999.0
01-12-2022, 00:21:15,     25,    0.0,    1.1,   0.00,   0.00, 1023.9,    0.0, -999.0
01-12-2022, 00:21:25,     25,    0.0,    1.0,   0.00,   0.00, 1023.9,    0.0, -999.0
01-12-2022, 00:21:35,     25,    0.0,    1.0,   0.00,   0.00, 1023.9,    0.0, -999.0
01-12-2022, 00:21:45,     25,    0.0,    1.0,   0.00,   0.00, 1023.9,    0.0, -999.0
01-12-2022, 00:21:55,     25,    0.0,    1.0,   0.00,   0.00, 1023.9,    0.0, -999.0
01-12-2022, 00:22:05,     25,    0.0,    1.0,   0.00,   0.00, 1023.9,    0.1, -999.0
01-12-2022, 00:22:15,     25,    0.0,    1.1,   0.00,   0.00, 1023.9,    0.0, -999.0
01-12-2022, 00:22:25,     25,    0.0,    1.0,   0.00,   0.00, 1023.9,    0.0, -999.0
01-12-2022, 00:22:35,     25,    0.0,    1.1,   0.00,   0.00, 1023.9,    0.0, -999.0
01-12-2022, 00:22:45,     25,    0.0,    1.1,   0.00,   0.00, 1023.9,    0.1, -999.0
01-12-2022, 00:22:55,     25,    0.0,    1.1,   0.00,   0.00, 1023.9,    0.0, -999.0
01-12-2022, 00:23:04,     25,    0.0,    1.0,   0.00,   0.00, 1023.9,    0.0, -999.0
01-12-2022, 00:23:15,     25,    0.0,    1.1,   0.00,   0.00, 1023.9,    0.1, -999.0
01-12-2022, 00:23:25,     25,    0.0,    1.0,   0.00,   0.00, 1023.9,    0.0, -999.0
01-12-2022, 00:23:34,     25,    0.0,    1.1,   0.00,   0.00, 1023.9,    0.1, -999.0
01-12-2022, 00:23:44,     24,    0.0,    1.1,   0.00,   0.00, 1023.9,    0.0, -999.0
01-12-2022, 00:23:55,     24,    0.0,    1.0,   0.00,   0.00, 1023.9,    0.0, -999.0
01-12-2022, 00:24:05,     25,    0.0,    1.1,   0.00,   0.00, 1023.9,    0.0, -999.0
01-12-2022, 00:24:14,     25,    0.0,    1.0,   0.00,   0.00, 1023.9,    0.0, -999.0
01-12-2022, 00:24:24,     25,    0.0,    1.0,   0.00,   0.00, 1023.9,    0.0, -999.0
01-12-2022, 00:24:35,     25,    0.0,    1.0,   0.00,   0.00, 1023.9,    0.0, -999.0
01-12-2022, 00:24:44,     25,    0.0,    1.0,   0.00,   0.00, 1023.9,    0.0, -999.0
01-12-2022, 00:24:54,     25,    0.0,    1.0,   0.00,   0.00, 1023.9,    0.1, -999.0
01-12-2022, 00:25:04,     25,    0.0,    0.9,   0.00,   0.00, 1023.9,    0.0, -999.0
01-12-2022, 00:25:14,     25,    0.0,    1.0,   0.00,   0.00, 1023.9,    0.0, -999.0
01-12-2022, 00:25:24,     25,    0.0,    1.0,   0.00,   0.00, 1023.9,    0.1, -999.0
01-12-2022, 00:25:34,     25,    0.0,    0.9,   0.00,   0.00, 1023.9,    0.0, -999.0
01-12-2022, 00:25:45,     25,    0.0,    0.9,   0.00,   0.00, 1023.9,    0.2, -999.0
01-12-2022, 00:25:54,     25,    0.0,    0.9,   0.00,   0.00, 1023.9,    0.1, -999.0
01-12-2022, 00:26:04,     25,    0.0,    0.8,   0.00,   0.00, 1023.9,    0.1, -999.0
01-12-2022, 00:26:14,     25,    0.0,    0.9,   0.00,   0.00, 1023.9,    0.1, -999.0
01-12-2022, 00:26:24,     25,    0.0,    0.9,   0.00,   0.00, 1023.9,    0.0, -999.0
01-12-2022, 00:26:34,     25,    0.0,    0.9,   0.00,   0.00, 1023.9,    0.1, -999.0
01-12-2022, 00:26:44,     25,    0.0,    0.9,   0.00,   0.00, 1023.9,    0.1, -999.0
01-12-2022, 00:26:54,     25,    0.0,    0.9,   0.00,   0.00, 1023.9,    0.0, -999.0
01-12-2022, 00:27:04,     25,    0.0,    0.8,   0.00,   0.00, 1023.9,    0.0, -999.0
01-12-2022, 00:27:14,     25,    0.0,    0.9,   0.00,   0.00, 1023.9,    0.0, -999.0
01-12-2022, 00:27:24,     25,    0.0,    0.9,   0.00,   0.00, 1023.9,    0.1, -999.0
01-12-2022, 00:27:34,     25,    0.0,    0.7,   0.00,   0.00, 1023.9,    0.2, -999.0
01-12-2022, 00:27:44,     25,    0.0,    0.6,   0.00,   0.00, 1023.9,    0.1, -999.0
01-12-2022, 00:27:54,     25,    0.0,    0.8,   0.00,   0.00, 1023.9,    0.1, -999.0
01-12-2022, 00:28:04,     25,    0.0,    0.7,   0.00,   0.00, 1023.9,    0.0, -999.0
01-12-2022, 00:28:14,     26,    0.0,    0.7,   0.00,   0.00, 1023.9,    0.0, -999.0
01-12-2022, 00:28:24,     25,    0.0,    0.7,   0.00,   0.00, 1023.9,    0.1, -999.0
01-12-2022, 00:28:34,     25,    0.0,    0.8,   0.00,   0.00, 1023.9,    0.1, -999.0
01-12-2022, 00:28:44,     25,    0.0,    0.8,   0.00,   0.00, 1023.9,    0.0, -999.0
01-12-2022, 00:28:54,     25,    0.0,    0.7,   0.00,   0.00, 1023.9,    0.1, -999.0
01-12-2022, 00:29:04,     25,    0.0,    0.7,   0.00,   0.00, 1023.9,    0.1, -999.0
01-12-2022, 00:29:14,     25,    0.0,    0.7,   0.00,   0.00, 1023.8,    0.1, -999.0
01-12-2022, 00:29:24,     24,    0.0,    0.7,   0.00,   0.00, 1023.9,    0.1, -999.0
01-12-2022, 00:29:34,     25,    0.0,    0.6,   0.00,   0.00, 1023.9,    0.1, -999.0
01-12-2022, 00:29:44,     25,    0.0,    0.7,   0.00,   0.00, 1023.8,    0.1, -999.0
01-12-2022, 00:29:54,     25,    0.0,    0.7,   0.00,   0.00, 1023.8,    0.0, -999.0
01-12-2022, 00:30:04,     25,    0.0,    0.7,   0.00,   0.00, 1023.8,    0.1, -999.0
01-12-2022, 00:30:14,     25,    0.0,    0.7,   0.00,   0.00, 1023.8,    0.0, -999.0
01-12-2022, 00:30:24,     25,    0.0,    0.7,   0.00,   0.00, 1023.8,    0.1, -999.0
01-12-2022, 00:30:34,     25,    0.0,    0.6,   0.00,   0.00, 1023.8,    0.3, -999.0
01-12-2022, 00:30:43,     25,    0.0,    0.6,   0.00,   0.00, 1023.8,    0.0, -999.0
01-12-2022, 00:30:54,     25,    0.0,    0.7,   0.00,   0.00, 1023.8,    0.0, -999.0
01-12-2022, 00:31:04,     25,    0.0,    0.7,   0.00,   0.00, 1023.8,    0.1, -999.0
01-12-2022, 00:31:14,     25,    0.0,    0.7,   0.00,   0.00, 1023.8,    0.1, -999.0
01-12-2022, 00:31:23,     25,    0.0,    0.7,   0.00,   0.00, 1023.8,    0.0, -999.0
01-12-2022, 00:31:34,     25,    0.0,    0.8,   0.00,   0.00, 1023.8,    0.0, -999.0
01-12-2022, 00:31:44,     25,    0.0,    0.8,   0.00,   0.00, 1023.8,    0.1, -999.0
01-12-2022, 00:31:53,     24,    0.0,    0.8,   0.00,   0.00, 1023.8,    0.1, -999.0
01-12-2022, 00:32:03,     25,    0.0,    0.9,   0.00,   0.00, 1023.8,    0.1, -999.0
01-12-2022, 00:32:14,     25,    0.0,    0.9,   0.00,   0.00, 1023.8,    0.0, -999.0
01-12-2022, 00:32:24,     25,    0.0,    0.9,   0.00,   0.00, 1023.8,    0.1, -999.0
01-12-2022, 00:32:33,     25,    0.0,    0.8,   0.00,   0.00, 1023.7,    0.0, -999.0
01-12-2022, 00:32:43,     24,    0.0,    0.9,   0.00,   0.00, 1023.8,    0.0, -999.0
01-12-2022, 00:32:54,     25,    0.0,    0.9,   0.00,   0.00, 1023.8,    0.0, -999.0
01-12-2022, 00:33:03,     25,    0.0,    0.8,   0.00,   0.00, 1023.7,    0.1, -999.0
01-12-2022, 00:33:13,     25,    0.0,    0.8,   0.00,   0.00, 1023.7,    0.0, -999.0
01-12-2022, 00:33:23,     25,    0.0,    0.9,   0.00,   0.00, 1023.7,    0.0, -999.0
01-12-2022, 00:33:33,     25,    0.0,    0.9,   0.00,   0.00, 1023.8,    0.0, -999.0
01-12-2022, 00:33:43,     25,    0.0,    0.9,   0.00,   0.00, 1023.8,    0.0, -999.0
01-12-2022, 00:33:53,     25,    0.0,    0.9,   0.00,   0.00, 1023.8,    0.0, -999.0
01-12-2022, 00:34:03,     25,    0.0,    0.8,   0.00,   0.00, 1023.8,    0.0, -999.0
01-12-2022, 00:34:13,     24,    0.0,    0.9,   0.00,   0.00, 1023.7,    0.1, -999.0
01-12-2022, 00:34:23,     25,    0.0,    0.8,   0.00,   0.00, 1023.8,    0.1, -999.0
01-12-2022, 00:34:33,     25,    0.0,    0.8,   0.00,   0.00, 1023.7,    0.0, -999.0
01-12-2022, 00:34:43,     25,    0.0,    0.8,   0.00,   0.00, 1023.7,    0.0, -999.0
01-12-2022, 00:34:53,     25,    0.0,    0.8,   0.00,   0.00, 1023.8,    0.0, -999.0
01-12-2022, 00:35:03,     25,    0.0,    0.8,   0.00,   0.00, 1023.7,    0.0, -999.0
01-12-2022, 00:35:13,     25,    0.0,    0.8,   0.00,   0.00, 1023.7,    0.1, -999.0
01-12-2022, 00:35:23,     25,    0.0,    0.8,   0.00,   0.00, 1023.7,    0.0, -999.0
01-12-2022, 00:35:33,     25,    0.0,    0.7,   0.00,   0.00, 1023.8,    0.1, -999.0
01-12-2022, 00:35:43,     25,    0.0,    0.8,   0.00,   0.00, 1023.8,    0.1, -999.0
01-12-2022, 00:35:53,     25,    0.0,    0.8,   0.00,   0.00, 1023.8,    0.0, -999.0
01-12-2022, 00:36:03,     25,    0.0,    0.8,   0.00,   0.00, 1023.7,    0.0, -999.0
01-12-2022, 00:36:13,     25,    0.0,    0.8,   0.00,   0.00, 1023.8,    0.0, -999.0
01-12-2022, 00:36:23,     25,    0.0,    0.7,   0.00,   0.00, 1023.8,    0.2, -999.0
01-12-2022, 00:36:33,     25,    0.0,    0.7,   0.00,   0.00, 1023.8,    0.0, -999.0
01-12-2022, 00:36:43,     25,    0.0,    0.8,   0.00,   0.00, 1023.8,    0.0, -999.0
01-12-2022, 00:36:53,     25,    0.0,    0.8,   0.00,   0.00, 1023.8,    0.0, -999.0
01-12-2022, 00:37:03,     25,    0.0,    0.8,   0.00,   0.00, 1023.8,    0.1, -999.0
01-12-2022, 00:37:13,     25,    0.0,    0.8,   0.00,   0.00, 1023.8,    0.0, -999.0
01-12-2022, 00:37:23,     25,    0.0,    0.8,   0.00,   0.00, 1023.8,    0.1, -999.0
01-12-2022, 00:37:33,     26,    0.0,    0.8,   0.00,   0.00, 1023.8,    0.1, -999.0
01-12-2022, 00:37:43,     25,    0.0,    0.8,   0.00,   0.00, 1023.8,    0.1, -999.0
01-12-2022, 00:37:53,     25,    0.0,    0.8,   0.00,   0.00, 1023.8,    0.0, -999.0
01-12-2022, 00:38:03,     25,    0.0,    0.6,   0.00,   0.00, 1023.8,    0.1, -999.0
01-12-2022, 00:38:13,     25,    0.0,    0.7,   0.00,   0.00, 1023.8,    0.1, -999.0
01-12-2022, 00:38:23,     25,    0.0,    0.7,   0.00,   0.00, 1023.8,    0.2, -999.0
01-12-2022, 00:38:32,     25,    0.0,    0.7,   0.00,   0.00, 1023.8,    0.1, -999.0
01-12-2022, 00:38:43,     25,    0.0,    0.7,   0.00,   0.00, 1023.8,    0.1, -999.0
01-12-2022, 00:38:53,     25,    0.0,    0.7,   0.00,   0.00, 1023.8,    0.0, -999.0
01-12-2022, 00:39:02,     25,    0.0,    0.7,   0.00,   0.00, 1023.7,    0.0, -999.0
01-12-2022, 00:39:12,     25,    0.0,    0.8,   0.00,   0.00, 1023.8,    0.1, -999.0
01-12-2022, 00:39:23,     25,    0.0,    0.8,   0.00,   0.00, 1023.8,    0.1, -999.0
01-12-2022, 00:39:33,     26,    0.0,    0.7,   0.00,   0.00, 1023.8,    0.0, -999.0
01-12-2022, 00:39:42,     25,    0.0,    0.7,   0.00,   0.00, 1023.8,    0.1, -999.0
01-12-2022, 00:39:52,     25,    0.0,    0.8,   0.00,   0.00, 1023.8,    0.1, -999.0
01-12-2022, 00:40:03,     25,    0.0,    0.7,   0.00,   0.00, 1023.8,    0.1, -999.0
01-12-2022, 00:40:12,     25,    0.0,    0.7,   0.00,   0.00, 1023.8,    0.0, -999.0
01-12-2022, 00:40:22,     25,    0.0,    0.7,   0.00,   0.00, 1023.8,    0.0, -999.0
01-12-2022, 00:40:32,     25,    0.0,    0.7,   0.00,   0.00, 1023.8,    0.0, -999.0
01-12-2022, 00:40:42,     25,    0.0,    0.7,   0.00,   0.00, 1023.8,    0.1, -999.0
01-12-2022, 00:40:52,     25,    0.0,    0.6,   0.00,   0.00, 1023.8,    0.1, -999.0
01-12-2022, 00:41:02,     25,    0.0,    0.7,   0.00,   0.00, 1023.8,    0.1, -999.0
01-12-2022, 00:41:12,     25,    0.0,    0.6,   0.00,   0.00, 1023.8,    0.1, -999.0
01-12-2022, 00:41:22,     25,    0.0,    0.7,   0.00,   0.00, 1023.8,    0.1, -999.0
01-12-2022, 00:41:32,     25,    0.0,    0.7,   0.00,   0.00, 1023.8,    0.0, -999.0
01-12-2022, 00:41:42,     25,    0.0,    0.7,   0.00,   0.00, 1023.8,    0.1, -999.0
01-12-2022, 00:41:52,     25,    0.0,    0.7,   0.00,   0.00, 1023.8,    0.1, -999.0
01-12-2022, 00:42:02,     25,    0.0,    0.6,   0.00,   0.00, 1023.8,    0.0, -999.0
01-12-2022, 00:42:12,     25,    0.0,    0.7,   0.00,   0.00, 1023.8,    0.0, -999.0
01-12-2022, 00:42:22,     25,    0.0,    0.7,   0.00,   0.00, 1023.8,    0.1, -999.0
01-12-2022, 00:42:32,     25,    0.0,    0.7,   0.00,   0.00, 1023.8,    0.1, -999.0
01-12-2022, 00:42:42,     25,    0.0,    0.7,   0.00,   0.00, 1023.8,    0.1, -999.0
01-12-2022, 00:42:52,     24,    0.0,    0.7,   0.00,   0.00, 1023.8,    0.0, -999.0
01-12-2022, 00:43:02,     25,    0.0,    0.7,   0.00,   0.00, 1023.8,    0.0, -999.0
01-12-2022, 00:43:12,     25,    0.0,    0.7,   0.00,   0.00, 1023.8,    0.1, -999.0
01-12-2022, 00:43:22,     25,    0.0,    0.7,   0.00,   0.00, 1023.8,    0.0, -999.0
01-12-2022, 00:43:32,     25,    0.0,    0.7,   0.00,   0.00, 1023.8,    0.1, -999.0
01-12-2022, 00:43:42,     25,    0.0,    0.6,   0.00,   0.00, 1023.8,    0.0, -999.0
01-12-2022, 00:43:52,     25,    0.0,    0.7,   0.00,   0.00, 1023.8,    0.1, -999.0
01-12-2022, 00:44:02,     25,    0.0,    0.7,   0.00,   0.00, 1023.8,    0.1, -999.0
01-12-2022, 00:44:12,     25,    0.0,    0.6,   0.00,   0.00, 1023.8,    0.1, -999.0
01-12-2022, 00:44:22,     25,    0.0,    0.7,   0.00,   0.00, 1023.8,    0.3, -999.0
01-12-2022, 00:44:32,     25,    0.0,    0.6,   0.00,   0.00, 1023.8,    0.1, -999.0
01-12-2022, 00:44:42,     25,    0.0,    0.6,   0.00,   0.00, 1023.8,    0.1, -999.0
01-12-2022, 00:44:52,     25,    0.0,    0.6,   0.00,   0.00, 1023.8,    0.1, -999.0
01-12-2022, 00:45:02,     25,    0.0,    0.6,   0.00,   0.00, 1023.8,    0.0, -999.0
01-12-2022, 00:45:12,     25,    0.0,    0.6,   0.00,   0.00, 1023.8,    0.1, -999.0
01-12-2022, 00:45:22,     25,    0.0,    0.6,   0.00,   0.00, 1023.8,    0.0, -999.0
01-12-2022, 00:45:32,     25,    0.0,    0.6,   0.00,   0.00, 1023.8,    0.0, -999.0
01-12-2022, 00:45:41,     25,    0.0,    0.6,   0.00,   0.00, 1023.8,    0.0, -999.0
01-12-2022, 00:45:52,     25,    0.0,    0.6,   0.00,   0.00, 1023.8,    0.1, -999.0
01-12-2022, 00:46:02,     25,    0.0,    0.5,   0.00,   0.00, 1023.8,    0.0, -999.0
01-12-2022, 00:46:12,     25,    0.0,    0.5,   0.00,   0.00, 1023.8,    0.1, -999.0
01-12-2022, 00:46:21,     25,    0.0,    0.5,   0.00,   0.00, 1023.8,    0.0, -999.0
01-12-2022, 00:46:32,     25,    0.0,    0.5,   0.00,   0.00, 1023.8,    0.0, -999.0
01-12-2022, 00:46:42,     25,    0.0,    0.5,   0.00,   0.00, 1023.8,    0.1, -999.0
01-12-2022, 00:46:51,     25,    0.0,    0.4,   0.00,   0.00, 1023.8,    0.0, -999.0